Miscellaneous Local Product
Issued by NWS North Platte, NE

Home | Current Version | Previous Version | Text Only | Print | Product List | Glossary Off
Versions: 1 2 3 4 5 6 7 8 9 10 11 12 13 14 15 16 17 18 19 20 21 22 23 24 25 26 27 28 29 30 31 32 33 34 35 36 37 38 39 40 41 42 43 44 45 46 47 48 49 50

000
AXUS43 KLBF 250010
MISLBF


WESTERN AND NORTH CENTRAL NEBRASKA HOURLY WEATHER ROUNDUP
NATIONAL WEATHER SERVICE NORTH PLATTE NE
700 PM CDT SAT JUN 24 2017

NOTE: "FAIR" INDICATES FEW OR NO CLOUDS BELOW 12,000 FEET WITH NO
SIGNIFICANT WEATHER AND/OR OBSTRUCTIONS TO VISIBILITY.

NOTE: STATIONS NOT REPORTING VARIABLES SUCH AS SKY/WEATHER OR
PRESSURE ARE PROVIDED BY RAWS AND APRS NETWORKS AND ARE NOT UNDER
NATIONAL WEATHER SERVICE QUALITY CONTROL.

...OBSERVATIONS IN AND NEAR THE EASTERN PANHANDLE OF NEBRASKA...

CITY           SKY/WX    TMP DP  RH WIND       PRES   REMARKS
PINE RIDGE     SUNNY     74  36  25 N8        30.25S
GORDON         FAIR      71  34  25 N7        30.26S
CHADRON        MOSUNNY   76  27  16 NW9       30.23S
ALLIANCE       PTSUNNY   73  37  27 NE13      30.26S
SIDNEY         MOSUNNY   74  34  23 SE7       30.28S
$$

...OBSERVATIONS IN NORTHERN NEBRASKA AND FAR SOUTHERN SOUTH DAKOTA...

CITY           SKY/WX    TMP DP  RH WIND       PRES   REMARKS
WINNER         FAIR      76  31  19 N21G28    30.19S
VALENTINE      MOSUNNY   75  28  17 NW13      30.21S
THEDFORD       PTSUNNY   72  36  27 N8        30.25S
AINSWORTH      SUNNY     74  35  24 N20       30.21F
O`NEILL        SUNNY     74  38  27 NW17G28   30.18S
ORD            CLOUDY    70  35  27 W7        30.19S
BROKEN BOW     MOSUNNY   72  36  26 N10       30.22F
VALENTINE NWR    N/A     74  35  24 NW12G22     N/A
HALSEY           N/A     72  33  24 NW6G16      N/A
BUTTE            N/A     72  37  28 NW17G24     N/A
CHAMBERS         N/A     82  37  20 CALM        N/A
EWING            N/A     73  40  29 N12G18      N/A
$$

...OBSERVATIONS IN SOUTHWEST NEBRASKA AND FAR NORTHEAST COLORADO...

CITY           SKY/WX    TMP DP  RH WIND       PRES   REMARKS
WRAY           FAIR      75  46  35 NE9       30.24S
IMPERIAL       MOSUNNY   73  42  32 E7        30.24F
OGALLALA       MOSUNNY   77  34  21 SE7       30.24F
NORTH PLATTE   SUNNY     77  38  24 W8        30.22F
MCCOOK         CLOUDY    69  55  60 E5        30.23S
LEXINGTON      CLOUDY    74  44  33 NW6       30.22S
STAPLETON        N/A     74  39  27 CALM        N/A
GOTHENBURG       N/A     73  37  26 W5          N/A
CALLAWAY         N/A     72  41  32 NE5         N/A
$$

...OBSERVATIONS IN CENTRAL LINCOLN COUNTY AREA...

CITY           SKY/WX    TMP DP  RH WIND       PRES   REMARKS
N.P. AIRPORT   SUNNY     77  38  24 W8        30.22F
N.P. DOWNTOWN    N/A     77  40  26 W3          N/A
N.P. SOUTHEAST   N/A     77  39  25 CALM        N/A
N.P. HILLCREST   N/A     75  40  28 SW3         N/A
$$

...SOME OBSERVATIONS FROM AROUND THE REGION...

CITY           SKY/WX    TMP DP  RH WIND       PRES   REMARKS
DENVER         PTSUNNY   74  46  36 NE20G25   30.26S
LIMON          MOSUNNY   71  44  37 S5        30.27S
ASPEN          SUNNY     77  20  12 N15G23    30.30S
LARAMIE        PTSUNNY   64  37  36 SE15      30.35F
CASPER         MOSUNNY   70  28  21 E7        30.29F
CHEYENNE       PTSUNNY   67  37  33 VRB5      30.33S
SCOTTSBLUFF    PTSUNNY   74  36  25 NE7       30.25F
GRAND ISLAND   CLOUDY    74  39  28 NW9       30.20R
OMAHA          PTSUNNY   77  38  24 NW14      30.10F
SIOUX FALLS    MOSUNNY   68  43  40 NW18G31   30.13S
PIERRE         SUNNY     70  35  27 N17G28    30.19R
RAPID CITY     SUNNY     74  29  19 NW23G29   30.25S
BISMARCK       PTSUNNY   64  39  39 N15       30.24R
KANSAS CITY    MOSUNNY   75  46  35 W6        30.16F
HILL CITY      CLOUDY    75  52  44 E7        30.21S
WICHITA        MOSUNNY   84  51  31 NE3       30.15S
DODGE CITY     PTSUNNY   77  52  41 S5        30.20S
OKLAHOMA CITY  PTSUNNY   81  49  32 E8        30.14S
DALLAS         MOSUNNY   83  66  56 NE12      30.07F
AMARILLO       CLOUDY    69  60  73 SE12      30.23S
$$




USA.gov is the U.S. government's official web portal to all federal, state and local government web resources and services.